Temperature
21 20 20 19 19 19 18 18 17 17 16 16 15 15 15 14 14 14 14 13 13 13 13 13 13 13 13 13 13 13 13 13 14 14 14 14 15 15 15 15 15 15 15
21 20 20 19 19 19 18 18 17 17 16 16 15 15 15 14 14 14 13 13 13 13 13 13 13 13 13 13 13 13 13 13 13 14 15 15 15 15 15 15 15 15 15
22 21 20 19 19 19 18 18 17 17 16 16 15 15 14 14 14 14 13 13 13 13 13 13 13 13 13 13 13 13 13 13 13 14 14 15 16 15 15 14 15 15 15
21 21 20 19 19 19 19 18 17 17 16 16 15 15 15 14 14 14 13 13 13 13 13 13 13 13 13 13 13 13 13 13 13 14 14 14 14 15 15 15 15 14 15
21 21 20 20 19 19 19 18 17 17 16 16 16 15 14 14 14 14 14 13 13 13 13 13 13 13 13 13 13 13 13 13 13 13 14 14 14 14 15 15 14 14 14
21 21 20 20 19 19 19 18 18 17 17 16 16 15 15 14 14 14 14 14 13 13 13 13 13 13 13 13 13 13 13 13 13 13 13 14 14 14 14 15 14 14 14
21 20 20 20 20 19 19 18 18 17 17 16 16 15 15 14 14 14 14 14 14 13 13 13 13 13 13 13 13 13 13 13 13 13 13 13 13 14 14 14 14 14 14
20 20 20 20 19 19 19 18 18 17 17 16 16 15 15 14 14 14 14 14 14 14 13 13 13 13 13 13 13 13 13 13 13 13 13 13 13 13 13 14 14 14 15
20 20 20 19 19 19 19 19 18 18 17 17 16 15 15 15 15 14 14 14 14 13 13 13 13 13 13 13 13 13 13 13 13 13 13 13 13 13 13 13 13 14 15
20 20 20 19 19 19 19 18 18 18 17 17 16 16 15 15 15 14 14 14 14 14 13 13 13 13 13 13 13 13 13 13 13 13 13 13 13 13 13 13 13 13 14
20 20 19 19 19 19 19 19 18 18 17 17 16 16 16 15 15 15 14 14 14 14 13 13 13 13 13 13 13 13 13 13 13 13 13 13 13 13 13 13 13 13 14
20 19 19 19 19 19 19 18 18 18 17 17 16 16 16 15 15 15 14 14 14 14 14 13 13 13 13 13 13 13 13 13 13 13 13 13 13 13 13 13 13 13 13
19 19 19 19 19 19 19 18 18 18 17 17 17 16 16 15 15 15 15 14 14 14 14 13 13 13 13 13 13 13 13 13 13 13 13 13 13 13 13 13 13 13 13
19 19 19 19 19 19 18 18 18 18 18 17 17 16 16 16 15 15 15 14 14 14 14 14 13 13 13 13 13 13 13 13 13 13 13 13 13 13 13 13 13 13 13
18 18 18 18 18 18 18 18 18 18 18 17 17 17 16 16 16 15 15 15 14 14 14 14 14 13 13 13 13 13 13 13 13 13 13 13 13 13 13 13 13 13 13
18 18 18 18 18 18 18 18 18 18 18 17 17 17 16 16 16 15 15 15 14 14 14 14 14 13 13 14 14 13 13 13 13 13 13 13 13 13 13 13 13 13 13
17 17 18 18 18 18 18 18 17 17 17 17 17 17 16 16 16 16 15 15 14 14 14 14 14 14 14 14 14 13 13 13 13 13 13 13 13 13 13 13 13 13 13
17 17 17 17 17 17 17 17 17 17 17 17 16 16 16 16 16 16 15 15 14 14 14 14 14 14 14 14 14 13 13 13 13 13 13 13 13 13 13 12 12 12 12
17 17 17 17 17 17 17 17 17 17 16 16 16 16 16 16 16 16 15 15 14 14 14 14 14 14 14 14 14 13 13 13 13 13 13 13 13 13 13 12 12 12 12
16 16 16 16 16 16 16 16 16 16 16 16 16 16 16 16 16 16 15 15 15 14 14 14 14 14 14 14 14 13 13 13 13 13 13 13 13 13 13 12 12 12 12
16 16 16 16 16 16 16 16 15 15 15 15 15 15 15 15 15 15 15 15 14 14 14 14 14 14 14 14 14 14 13 13 13 13 13 13 13 13 13 12 12 12 12
15 15 15 15 15 15 15 15 15 15 15 15 15 15 15 15 15 15 15 15 14 14 14 14 14 14 14 14 14 14 13 13 13 13 12 13 13 13 13 12 12 12 12
15 15 15 15 15 14 14 14 14 14 14 14 14 15 14 14 14 14 15 14 14 14 13 13 13 13 13 13 14 13 13 13 13 13 13 12 12 12 12 12 12 12 11
14 14 14 14 14 14 14 14 14 14 14 14 14 14 14 14 14 14 14 14 14 14 13 13 13 13 13 13 13 13 13 13 13 13 12 12 12 12 12 12 12 11 11
13 13 13 13 13 13 13 13 13 13 13 13 13 13 13 13 13 13 13 13 13 13 13 13 13 13 13 13 13 13 12 12 12 12 12 11 11 11 11 11 11 11 11
13 13 13 12 12 12 12 12 12 12 12 12 12 12 12 12 12 12 13 13 13 13 13 13 13 13 13 13 13 13 12 12 12 11 11 11 11 11 11 11 11 11 10
Wind_Speed
8 7 7 8 8 8 7 6 5 5 3 2 2 1 1 1 1 2 3 3 4 4 4 4 4 4 4 4 4 3 3 2 2 2 1 1 1 1 1 1 1 2 2
8 8 8 8 8 8 8 7 6 5 4 2 1 1 1 1 1 1 2 3 4 4 4 4 4 4 3 3 3 3 3 2 2 3 2 1 2 1 1 1 1 1 2
8 8 9 9 8 8 8 7 7 6 5 4 2 1 1 1 1 1 2 3 3 4 4 5 5 4 4 3 3 3 3 2 2 2 2 2 1 0 2 1 1 1 1
7 8 8 9 9 8 8 8 8 7 6 5 3 2 2 2 2 2 2 2 2 3 4 4 4 4 3 3 3 2 2 3 2 1 2 3 2 1 1 1 1 2 1
7 7 8 8 8 8 8 8 8 7 6 5 4 3 3 2 2 2 2 2 2 2 3 4 4 3 3 3 3 2 3 2 3 2 2 2 2 3 2 2 1 1 1
6 6 7 7 7 7 8 8 8 7 6 6 5 4 3 3 2 2 2 2 2 2 3 3 4 3 3 3 3 2 2 2 2 3 2 2 2 2 2 2 2 1 1
5 5 7 8 8 9 8 8 8 7 7 6 6 5 4 4 4 3 3 3 2 2 3 3 3 3 3 3 3 2 2 2 2 2 2 2 2 2 2 2 1 1 1
3 4 5 7 7 8 9 9 9 8 7 6 6 5 5 4 3 3 4 3 3 3 3 3 3 4 3 3 2 2 2 2 2 2 2 2 2 2 2 2 2 2 2
2 2 3 5 6 7 8 9 9 8 7 7 6 6 5 5 4 4 4 3 3 3 3 3 3 3 3 3 2 2 2 2 2 2 3 3 2 2 2 3 3 3 2
2 2 2 4 5 6 6 7 7 8 7 7 6 5 6 5 5 5 4 4 4 3 3 3 3 3 2 2 2 2 2 2 2 2 3 3 2 2 2 3 3 4 3
2 1 1 1 3 4 5 6 6 7 7 7 7 6 6 5 5 5 5 5 4 4 3 3 3 3 3 2 2 2 2 2 2 2 2 2 2 2 2 3 3 3 3
2 2 2 1 2 3 4 6 6 6 7 7 7 6 6 5 6 6 5 5 5 4 4 3 3 3 2 2 2 2 2 2 2 2 2 2 2 3 3 3 3 3 3
4 3 2 1 1 1 3 4 5 6 6 6 6 6 6 6 6 6 5 5 5 5 5 4 4 3 3 3 3 3 3 3 3 3 3 2 2 3 3 3 3 3 2
4 4 3 2 1 1 2 3 4 5 5 6 6 7 7 6 6 6 6 6 6 6 5 5 4 4 4 4 3 3 3 3 2 2 2 2 3 3 3 3 4 3 3
6 5 4 4 2 1 1 2 3 4 5 6 6 7 7 6 7 7 7 6 6 6 6 6 5 4 4 4 4 4 4 3 2 2 2 2 1 3 3 3 3 3 4
6 6 5 5 4 3 2 2 3 3 4 5 6 5 6 6 7 7 7 7 6 7 6 6 6 5 4 1 3 6 4 4 3 3 2 2 2 2 3 2 2 3 4
6 6 6 5 5 4 3 2 2 3 4 5 4 5 5 6 7 7 8 8 8 7 7 7 7 7 5 3 4 6 6 5 4 4 3 2 2 3 3 5 6 3 3
7 6 6 6 6 5 4 3 2 2 3 4 4 4 5 6 6 7 8 8 8 8 8 8 8 7 6 6 6 7 7 6 5 5 4 4 3 2 3 3 3 3 3
6 6 6 6 5 5 5 3 2 2 3 4 5 5 5 5 6 7 8 8 8 8 8 8 8 8 8 7 8 8 6 6 6 5 5 5 4 2 2 4 4 3 3
6 6 6 6 5 5 5 4 3 3 4 5 6 5 6 6 7 7 7 7 8 9 9 9 9 9 9 7 9 10 7 7 6 5 5 3 4 2 4 6 5 5 4
6 6 6 6 6 6 5 5 5 5 6 6 6 6 6 7 7 7 7 7 8 8 9 9 9 9 9 8 10 10 8 7 7 5 5 4 6 4 5 6 5 3 3
6 7 6 6 6 6 5 6 6 6 6 6 6 6 6 6 6 7 6 7 8 9 9 9 9 8 8 8 9 11 11 9 8 6 6 4 7 6 6 6 3 3 4
6 6 7 7 6 6 6 7 7 7 7 7 7 7 7 7 7 7 7 7 7 8 8 8 8 8 7 7 9 10 11 10 8 6 4 4 6 7 7 6 6 6 6
7 7 7 7 7 7 7 7 8 7 8 8 7 7 7 7 7 7 7 7 7 8 8 8 8 8 7 7 7 7 8 9 9 7 6 7 7 7 5 6 7 6 5
7 7 7 8 8 8 8 8 8 8 9 9 8 7 7 7 7 7 7 9 9 9 9 9 9 9 9 8 7 7 8 8 8 8 7 7 8 8 7 7 6 6 6
7 7 8 9 9 9 9 8 8 8 9 9 8 7 7 7 7 8 8 8 10 10 11 11 11 10 8 6 9 10 9 9 9 9 9 9 9 9 9 8 8 7 7
Wind_Direction
189 184 186 189 190 189 191 186 181 170 170 174 196 207 226 290 332 354 357 346 343 342 334 327 335 330 329 321 311 295 277 276 274 261 248 212 203 172 176 230 229 188 177
190 184 186 189 192 189 189 186 184 176 179 180 197 233 298 288 326 323 335 342 343 341 332 330 327 331 326 319 312 300 286 276 273 272 261 230 185 158 147 169 196 187 160
203 193 191 194 193 191 187 186 184 177 176 174 171 172 195 252 258 299 322 333 331 336 335 333 329 328 321 325 309 293 275 276 269 286 283 277 254 136 151 132 144 134 142
205 196 193 195 195 192 185 187 184 181 177 181 194 216 257 292 309 307 317 314 318 328 334 332 329 326 324 321 313 309 287 272 261 250 278 296 313 266 189 156 121 121 140
203 196 195 195 192 185 182 186 184 185 185 193 196 225 253 288 300 297 309 309 326 323 331 327 328 326 323 322 319 310 289 273 272 264 255 256 256 259 250 204 181 157 147
193 194 189 185 185 180 180 184 186 188 191 199 206 223 246 268 284 289 301 299 310 315 336 330 330 329 326 319 311 297 284 282 274 270 262 256 256 251 236 221 203 200 168
182 188 188 185 185 184 184 186 189 191 193 203 214 226 236 252 265 281 284 294 306 311 332 332 334 336 327 319 312 295 293 271 265 267 275 275 271 269 261 239 218 221 208
167 184 191 188 189 190 190 192 195 197 196 205 217 230 232 244 262 268 282 287 298 312 324 327 338 336 328 314 308 294 287 276 258 260 269 270 269 263 254 246 238 231 214
140 164 180 186 190 193 195 198 199 200 201 208 216 227 236 238 252 259 267 276 284 298 309 319 328 333 329 316 304 298 287 285 284 270 254 255 260 255 249 241 245 254 245
103 130 165 185 191 193 193 197 204 206 208 211 216 222 230 231 241 253 257 265 278 285 289 304 319 326 327 318 307 300 305 280 273 274 268 257 253 246 242 240 244 251 256
66 88 124 164 182 187 189 194 203 209 210 213 217 221 226 228 233 243 249 256 264 269 274 286 303 316 318 316 298 293 296 288 281 256 250 250 258 244 231 235 241 243 241
42 60 80 110 165 191 199 202 206 210 213 215 219 224 227 225 232 239 245 249 255 260 264 274 287 295 297 300 302 299 289 283 285 278 262 250 230 241 246 243 239 235 236
50 57 68 80 125 198 212 215 216 217 214 212 218 223 226 227 231 238 241 246 248 250 249 255 266 275 279 281 278 280 279 274 279 284 281 274 252 238 238 241 240 233 227
45 42 38 37 24 256 232 230 226 220 217 215 219 225 229 229 233 236 237 242 244 247 249 253 258 265 269 274 273 270 272 272 278 283 282 280 271 259 249 237 234 224 220
36 28 25 18 8 333 282 255 240 221 216 218 224 229 232 230 235 238 238 238 242 248 248 251 255 261 266 275 281 272 268 271 269 266 272 279 311 348 308 275 244 220 218
24 18 15 11 3 352 318 278 255 237 222 225 233 236 240 234 234 237 240 237 237 242 245 246 250 252 254 252 273 278 267 261 254 255 256 239 204 209 218 272 301 285 235
14 10 6 1 354 349 337 306 268 237 228 231 234 238 243 239 238 238 236 235 234 237 242 244 246 248 241 204 228 250 264 260 256 255 250 245 230 225 219 193 196 213 257
10 6 359 355 349 349 344 329 300 252 242 245 245 245 251 248 245 242 238 237 239 236 239 244 246 247 240 206 223 235 246 251 249 248 249 244 235 229 247 219 202 198 197
9 3 355 353 351 350 344 334 320 290 266 262 261 257 251 250 247 242 241 239 239 238 237 240 242 244 237 207 214 228 241 242 244 243 244 248 238 162 251 230 213 207 198
10 4 358 -0 359 352 342 333 327 314 294 280 271 265 256 250 247 246 246 244 241 240 240 240 241 244 247 207 206 225 236 238 237 234 230 222 245 191 217 228 222 223 219
6 0 357 356 350 344 335 326 327 319 311 299 283 272 261 255 253 250 247 244 241 242 243 244 243 244 245 217 205 217 232 237 237 233 228 214 184 205 212 239 236 232 243
360 355 349 346 344 340 328 321 322 319 313 304 291 279 269 263 255 249 247 245 240 240 243 245 246 243 237 232 214 212 227 247 236 234 231 209 171 190 205 217 207 208 227
347 344 338 334 338 337 325 317 320 317 309 300 291 285 278 266 258 251 247 245 240 241 245 244 245 242 236 223 210 213 218 228 233 232 217 193 176 190 199 200 206 211 216
337 333 330 329 331 332 325 318 318 314 306 299 295 290 284 275 263 255 252 248 245 242 244 244 246 245 237 231 221 218 215 210 219 222 199 191 196 210 215 203 205 215 217
331 326 321 320 321 324 321 322 319 311 304 301 298 296 289 283 274 262 257 254 251 249 246 246 246 244 242 231 218 225 224 219 215 210 213 214 210 211 213 212 208 207 207
324 321 319 318 318 318 317 318 317 309 304 303 303 298 293 286 279 274 268 257 258 258 249 252 254 249 249 229 213 222 228 217 199 207 217 218 216 214 212 211 208 206 206
Height
1516 1517 1519 1520 1522 1523 1525 1526 1526 1526 1526 1526 1526 1526 1526 1526 1525 1524 1522 1521 1519 1518 1516 1515 1514 1512 1511 1510 1510 1509 1509 1508 1508 1509 1508 1508 1508 1508 1508 1509 1509 1510 1511
1514 1516 1517 1519 1520 1522 1523 1524 1524 1525 1525 1525 1526 1525 1525 1525 1524 1523 1521 1520 1519 1517 1516 1515 1513 1512 1510 1509 1508 1508 1508 1508 1508 1508 1508 1508 1509 1507 1508 1508 1508 1509 1510
1511 1514 1515 1517 1518 1520 1521 1522 1523 1524 1524 1524 1525 1524 1524 1524 1524 1523 1521 1520 1518 1517 1515 1514 1513 1511 1510 1509 1508 1507 1507 1507 1507 1507 1508 1508 1507 1507 1508 1507 1507 1508 1509
1510 1511 1513 1515 1516 1518 1519 1521 1522 1523 1523 1524 1524 1524 1524 1524 1524 1522 1521 1519 1518 1516 1514 1513 1512 1510 1509 1508 1507 1507 1506 1506 1507 1507 1506 1507 1507 1507 1507 1507 1507 1507 1508
1508 1510 1511 1513 1515 1516 1518 1519 1521 1522 1522 1523 1523 1523 1524 1524 1523 1522 1520 1519 1518 1516 1514 1513 1511 1510 1509 1508 1507 1506 1506 1506 1506 1506 1506 1506 1506 1506 1506 1506 1507 1507 1508
1506 1508 1510 1511 1513 1515 1516 1518 1519 1520 1521 1522 1522 1523 1523 1522 1522 1521 1520 1519 1518 1516 1514 1513 1511 1510 1509 1507 1506 1505 1505 1505 1505 1505 1506 1506 1506 1506 1506 1506 1506 1506 1507
1505 1506 1508 1509 1511 1513 1514 1516 1518 1519 1520 1521 1521 1522 1521 1521 1521 1520 1519 1518 1518 1516 1514 1513 1511 1510 1508 1507 1506 1505 1504 1504 1504 1504 1504 1504 1505 1505 1505 1505 1505 1506 1506
1504 1505 1507 1508 1509 1511 1513 1514 1516 1517 1518 1519 1520 1520 1521 1520 1520 1519 1519 1518 1517 1516 1514 1512 1511 1509 1508 1506 1505 1505 1504 1504 1504 1503 1503 1503 1503 1503 1504 1505 1505 1505 1506
1504 1505 1506 1507 1508 1510 1511 1513 1514 1515 1516 1517 1518 1519 1519 1519 1519 1518 1518 1517 1516 1515 1513 1512 1511 1509 1508 1506 1505 1505 1504 1503 1503 1503 1503 1502 1502 1502 1502 1503 1504 1505 1505
1504 1505 1505 1506 1507 1508 1510 1511 1512 1514 1515 1516 1516 1517 1517 1517 1517 1517 1516 1516 1515 1514 1513 1512 1511 1509 1508 1506 1505 1505 1503 1503 1502 1501 1501 1501 1501 1501 1501 1501 1502 1503 1504
1504 1504 1505 1505 1506 1507 1508 1509 1511 1512 1513 1513 1514 1515 1515 1515 1515 1515 1515 1514 1514 1513 1512 1511 1510 1509 1508 1506 1505 1505 1503 1502 1502 1501 1501 1500 1500 1500 1500 1500 1501 1501 1502
1504 1504 1504 1504 1505 1506 1507 1508 1509 1510 1510 1511 1512 1513 1513 1513 1513 1513 1513 1512 1512 1512 1511 1510 1509 1508 1507 1506 1505 1504 1503 1502 1501 1501 1500 1500 1499 1499 1499 1499 1500 1500 1500
1504 1504 1503 1503 1504 1504 1505 1506 1507 1508 1508 1509 1509 1510 1511 1511 1511 1511 1510 1510 1510 1510 1509 1509 1508 1507 1506 1505 1504 1503 1502 1501 1501 1500 1499 1499 1499 1498 1498 1498 1499 1499 1499
1504 1504 1503 1503 1503 1503 1504 1504 1505 1505 1506 1506 1507 1507 1508 1508 1508 1508 1508 1508 1508 1508 1508 1507 1507 1506 1505 1504 1504 1503 1502 1501 1500 1499 1498 1498 1497 1497 1497 1497 1497 1497 1498
1505 1504 1504 1503 1503 1503 1502 1503 1503 1503 1504 1504 1505 1505 1506 1506 1506 1506 1506 1506 1506 1505 1505 1505 1505 1504 1503 1502 1502 1501 1501 1500 1499 1498 1497 1497 1496 1495 1495 1495 1496 1496 1496
1505 1505 1504 1503 1502 1502 1501 1501 1501 1501 1502 1502 1502 1503 1503 1503 1503 1503 1503 1503 1503 1503 1503 1503 1502 1502 1501 1500 1499 1499 1499 1499 1498 1497 1496 1496 1494 1493 1493 1493 1493 1494 1495
1506 1505 1504 1503 1502 1501 1500 1500 1499 1499 1499 1500 1500 1500 1500 1500 1500 1500 1500 1500 1500 1500 1500 1500 1500 1499 1498 1498 1497 1497 1497 1497 1496 1496 1495 1494 1493 1492 1493 1492 1492 1492 1493
1505 1504 1504 1503 1502 1501 1499 1499 1498 1498 1497 1497 1497 1497 1497 1497 1497 1497 1496 1496 1497 1497 1496 1497 1496 1496 1495 1495 1495 1494 1494 1494 1494 1493 1493 1492 1492 1491 1491 1492 1492 1492 1491
1506 1504 1503 1502 1501 1499 1498 1497 1497 1496 1495 1495 1495 1494 1494 1493 1493 1493 1493 1493 1493 1493 1493 1493 1492 1492 1492 1492 1492 1491 1491 1491 1491 1491 1490 1490 1490 1489 1489 1490 1490 1490 1490
1505 1504 1502 1501 1500 1498 1497 1496 1495 1494 1493 1492 1492 1491 1490 1490 1489 1489 1489 1489 1489 1489 1489 1489 1488 1488 1488 1488 1488 1488 1488 1488 1488 1487 1487 1486 1486 1486 1486 1487 1488 1488 1488
1504 1503 1502 1500 1498 1497 1495 1494 1493 1492 1490 1489 1488 1487 1487 1486 1486 1485 1485 1485 1484 1484 1484 1484 1484 1484 1484 1483 1484 1484 1484 1484 1484 1484 1484 1483 1483 1483 1484 1484 1485 1485 1485
1503 1502 1500 1499 1497 1495 1493 1492 1490 1489 1487 1486 1485 1484 1483 1482 1481 1481 1480 1480 1480 1479 1479 1479 1479 1479 1479 1479 1479 1479 1479 1480 1480 1480 1480 1480 1479 1480 1480 1481 1481 1482 1482
1502 1500 1498 1497 1495 1493 1491 1489 1487 1485 1484 1482 1481 1480 1479 1478 1477 1476 1475 1475 1474 1474 1474 1474 1474 1473 1473 1473 1473 1474 1474 1474 1475 1475 1475 1475 1475 1476 1477 1477 1477 1478 1479
1499 1497 1496 1494 1492 1490 1488 1486 1484 1482 1480 1479 1477 1476 1474 1473 1472 1471 1470 1470 1469 1469 1469 1468 1468 1468 1467 1467 1468 1468 1468 1469 1469 1469 1469 1470 1471 1471 1472 1473 1473 1474 1474
1496 1495 1493 1491 1489 1487 1485 1483 1481 1479 1477 1475 1473 1471 1470 1468 1466 1465 1464 1464 1463 1463 1463 1462 1462 1462 1461 1461 1462 1462 1462 1463 1463 1464 1464 1465 1465 1466 1467 1468 1468 1469 1470
1494 1492 1490 1488 1486 1484 1482 1479 1477 1475 1473 1471 1469 1467 1465 1463 1461 1460 1458 1457 1457 1456 1455 1455 1455 1455 1455 1455 1455 1456 1456 1457 1458 1458 1458 1459 1459 1460 1461 1462 1463 1464 1465